Change the Weather History Date:

Saturday, September 7, 2013

  Actual Average Record
Temperature  
Mean Temperature 62 °F 67 °F  
Max Temperature 69 °F 81 °F 96 °F (2011)
Min Temperature 54 °F 53 °F 38 °F (1992)
Degree Days  
Heating Degree Days 3 2  
Month to date heating degree days 6 9  
Since 1 July heating degree days 6 26  
Cooling Degree Days 0 4  
Month to date cooling degree days 59 29  
Year to date cooling degree days 983 723  
Growing Degree Days 11 (Base 50)    
Moisture  
Dew Point 54 °F    
Average Humidity 78    
Maximum Humidity 100    
Minimum Humidity 55    
Precipitation  
Precipitation 0.01 in 0.01 in 0.24 in (1995)
Month to date precipitation 0.21 0.06  
Year to date precipitation 4.45 4.72  
Sea Level Pressure  
Sea Level Pressure 30.08 in    
Wind  
Wind Speed 5 mph (NNE)    
Max Wind Speed 10 mph    
Max Gust Speed 13 mph    
Visibility 10 miles    
Events Rain    
T = Trace of Precipitation, MM = Missing Value Source: NWS Daily Summary

Daily Weather History Graph

Daily Weather History Graph

Search for Another Location

Airport or City:

Trip Planner

Search our weather history database for the weather conditions in past years. The results will help you decide how hot, cold, wet, or windy it might be!

Date:

Astronomy

Sep. 07, 2013 Rise Set
Actual Time 6:25 AM PDT 7:25 PM PDT
Civil Twilight 5:54 AM PDT 7:56 PM PDT
Nautical Twilight 5:16 AM PDT 8:33 PM PDT
Astronomical Twilight 4:36 AM PDT 9:13 PM PDT
Moon 8:58 AM PDT (9/7) 8:11 PM PDT (9/7)
Length of Visible Light 14h 02m
Length of Day
13h 00m
Waxing Crescent, 6% of the Moon is Illuminated
Sep 7
Waxing Crescent
Sep 12
First Quarter
Sep 19
Full
Sep 26
Last Quarter
Oct 4
New

Hourly Weather History & Observations

Time (PDT) Temp. Dew Point Humidity Pressure Visibility Wind Dir Wind Speed Gust Speed Precip Events Conditions
12:53 AM 57.0 °F 54.0 °F 89% 30.10 in 10.0 mi North 5.8 mph - N/A   Clear
1:53 AM 55.0 °F 53.1 °F 93% 30.10 in 10.0 mi North 4.6 mph - N/A   Clear
2:53 AM 55.0 °F 53.1 °F 93% 30.10 in 10.0 mi Calm Calm - N/A   Partly Cloudy
3:35 AM 55.4 °F 53.6 °F 94% 30.11 in 10.0 mi Calm Calm - 0.01 in   Mostly Cloudy
3:53 AM 57.0 °F 54.0 °F 89% 30.10 in 10.0 mi Calm Calm - 0.01 in   Mostly Cloudy
4:36 AM 55.4 °F 53.6 °F 94% 30.11 in 10.0 mi NE 3.5 mph - N/A   Overcast
4:53 AM 55.9 °F 54.0 °F 93% 30.11 in 10.0 mi NNE 3.5 mph - N/A   Scattered Clouds
5:23 AM 55.4 °F 53.6 °F 94% 30.10 in 10.0 mi North 5.8 mph - N/A   Mostly Cloudy
5:37 AM 55.4 °F 53.6 °F 94% 30.10 in 10.0 mi North 3.5 mph - N/A   Scattered Clouds
5:53 AM 54.0 °F 52.0 °F 93% 30.10 in 10.0 mi North 5.8 mph - N/A   Partly Cloudy
6:53 AM 54.0 °F 53.1 °F 97% 30.09 in 10.0 mi North 5.8 mph - N/A   Clear
7:53 AM 55.0 °F 53.1 °F 93% 30.10 in 10.0 mi East 6.9 mph - N/A   Mostly Cloudy
8:36 AM 55.4 °F 53.6 °F 94% 30.10 in 10.0 mi East 5.8 mph - N/A   Overcast
8:53 AM 57.9 °F 54.0 °F 87% 30.10 in 10.0 mi NNE 3.5 mph - N/A   Overcast
9:26 AM 60.8 °F 55.4 °F 82% 30.11 in 10.0 mi NNE 3.5 mph - N/A   Overcast
9:51 AM 60.8 °F 55.4 °F 82% 30.11 in 10.0 mi ENE 4.6 mph - N/A   Overcast
9:53 AM 60.1 °F 55.0 °F 83% 30.11 in 10.0 mi ENE 4.6 mph - N/A   Overcast
10:53 AM 62.1 °F 55.0 °F 78% 30.11 in 10.0 mi ENE 5.8 mph - N/A   Overcast
11:53 AM 62.1 °F 55.9 °F 80% 30.10 in 10.0 mi NE 4.6 mph - 0.00 in Rain Light Rain
12:53 PM 63.0 °F 55.9 °F 78% 30.09 in 10.0 mi NE 4.6 mph - 0.00 in   Overcast
1:53 PM 64.0 °F 55.9 °F 75% 30.09 in 10.0 mi North 5.8 mph - N/A   Overcast
2:53 PM 66.0 °F 55.0 °F 68% 30.07 in 10.0 mi North 6.9 mph - N/A   Overcast
3:53 PM 66.9 °F 55.0 °F 66% 30.06 in 10.0 mi North 9.2 mph - N/A   Overcast
4:53 PM 66.9 °F 52.0 °F 59% 30.04 in 10.0 mi North 5.8 mph - N/A   Overcast
5:53 PM 68.0 °F 51.1 °F 55% 30.04 in 10.0 mi North 5.8 mph - N/A   Overcast
6:53 PM 66.9 °F 53.1 °F 61% 30.02 in 10.0 mi North 4.6 mph - N/A   Partly Cloudy
7:53 PM 64.0 °F 54.0 °F 70% 30.03 in 10.0 mi NW 5.8 mph - N/A   Clear
8:53 PM 63.0 °F 53.1 °F 70% 30.04 in 10.0 mi NW 5.8 mph - N/A   Clear
9:53 PM 62.1 °F 53.1 °F 72% 30.04 in 10.0 mi NW 5.8 mph - N/A   Clear
10:53 PM 61.0 °F 53.1 °F 75% 30.04 in 10.0 mi NNW 3.5 mph - N/A   Clear
11:53 PM 57.0 °F 52.0 °F 83% 30.05 in 10.0 mi North 3.5 mph - N/A   Clear